Regional Weather Roundup
Issued by NWS

Home | Current Version | Previous Version | Text Only | Print | Product List | Glossary Off
Versions: 1 2 3 4 5 6 7 8 9 10 11 12 13 14 15 16 17 18 19 20 21 22 23 24 25 26 27 28 29 30 31 32 33 34 35 36 37 38 39 40 41 42 43 44 45 46 47 48 49 50

000
ASUS43 KTOP 211059
RWRKS

WEATHER ROUNDUP FOR KANSAS
NATIONAL WEATHER SERVICE GOODLAND KS
600 AM CDT FRI JUL 21 2017

NOTE:  "FAIR" INDICATES FEW OR NO CLOUDS BELOW 12,000 FEET WITH NO
SIGNIFICANT WEATHER AND/OR OBSTRUCTIONS TO VISIBILITY.

KSZ001>006-013>018-027>032-041>047-211200-
NORTHWEST KANSAS

CITY           SKY/WX    TMP DP  RH WIND       PRES   REMARKS
GOODLAND       CLEAR     74  55  51 SW9       29.94S
HAYS           CLEAR     78  63  59 S8        29.91S
HILL CITY      CLEAR     78  59  51 S9        29.88F
RUSSELL        CLEAR     79  63  57 S16       29.89S
$$

KSZ061>065-074>080-084>089-211200-
SOUTHWEST KANSAS

CITY           SKY/WX    TMP DP  RH WIND       PRES   REMARKS
DODGE CITY     CLEAR     76  61  59 S10       29.96S
ELKHART          N/A     71  46  40 S10         N/A
GARDEN CITY    CLEAR     72  58  61 S14       29.95F
LIBERAL        CLEAR     70  58  65 S9        29.99S
$$

KSZ066>073-081>083-090>101-211200-
SOUTHEAST KANSAS

CITY           SKY/WX    TMP DP  RH WIND       PRES   REMARKS
CHANUTE        CLEAR     78  72  81 S9        29.98R
COFFEYVILLE    CLEAR     76  74  93 S7        29.98R
HUTCHINSON     CLEAR     82  65  56 S13       29.93F
MEDICINE LODGE   N/A     77  64  64 SE8       29.95S
NEWTON         CLEAR     79  68  69 S15       29.96S
PARSONS        CLEAR     77  73  87 S5        29.99R
WICHITA INTL   PTCLDY    76  70  82 S8        29.95S
WICHITA JABRA  CLEAR     78  69  73 S9        29.96S
WINFIELD       PTCLDY    76  69  79 S7        29.98S
$$

KSZ007>012-019>026-033>040-048>060-102>105-211200-
NORTHEAST KANSAS

CITY           SKY/WX    TMP DP  RH WIND       PRES   REMARKS
CONCORDIA      PTCLDY    80  66  62 S18       29.89S
EMPORIA        CLEAR     76  70  82 S13       29.94S
LAWRENCE       CLEAR     78  73  84 E7        29.93R
MANHATTAN      CLEAR     80  70  71 SW9       29.90S
OLATHE IND     CLEAR     79  71  76 S9        29.96R
OLATHE EXE     CLEAR     77  73  87 S7        29.96R
SALINA         CLEAR     82  66  58 S13       29.91R
TOPEKA BILLARD CLEAR     80  73  79 VRB3      29.92R
TOPEKA FORBES  CLEAR     79  73  82 S9        29.93R
$$



USA.gov is the U.S. government's official web portal to all federal, state and local government web resources and services.